Location: Baia Mare
(47.6567°N, 23.5850°E)
Time: 07:14:16
(UTC+03:00)

ISS - Pass Details

Date: 01 August 2018
Orbit: 402 x 408 km, 51.6° (Epoch: 21 July)

Event Time Altitude Azimuth Distance (km) Brightness Sun altitude
Rises 22:23:14 0° 293° (WNW) 2,323 1.4 -12.1°
Reaches altitude 10° 22:25:20 10° 296° (WNW) 1,463 0.2 -12.3°
Maximum altitude 22:28:36 69° 19° (NNE) 437 -3.6 -12.7°
Enters shadow 22:30:46 19° 101° (E) 1,024 -2.3 -12.9°
